Weather History for Sarasota, FL

Change the Weather History Date:

Tuesday, October 19, 2010

  Actual Average Record
Temperature  
Mean Temperature 73 °F 76 °F  
Max Temperature 82 °F 85 °F 92 °F (1971)
Min Temperature 64 °F 67 °F 47 °F (1977)
Degree Days  
Heating Degree Days 0 0  
Month to date heating degree days 0 0  
Since 1 July heating degree days 0 0  
Cooling Degree Days 8 11  
Month to date cooling degree days 160 244  
Year to date cooling degree days 3097 3033  
Growing Degree Days 22 (Base 50)    
Moisture  
Dew Point 63 °F    
Average Humidity 73    
Maximum Humidity 87    
Minimum Humidity 58    
Precipitation  
Precipitation T in 0.09 in 2.75 in (1958)
Month to date precipitation T 2.17  
Year to date precipitation 40.59 47.60  
Sea Level Pressure  
Sea Level Pressure 29.95 in    
Wind  
Wind Speed 4 mph (SSW)    
Max Wind Speed 10 mph    
Max Gust Speed 16 mph    
Visibility 10 miles    
Events Rain    
T = Trace of Precipitation, MM = Missing Value Source: NWS Daily Summary

Daily Weather History Graph

Daily Weather History Graph

Search for Another Location

Airport:

Trip Planner

Search our weather history database for the weather conditions in past years. The results will help you decide how hot, cold, wet, or windy it might be!

Date:

Astronomy

Oct. 19, 2010 Rise Set
Actual Time 7:32 AM EDT 6:57 PM EDT
Civil Twilight 7:08 AM EDT 7:21 PM EDT
Nautical Twilight 6:41 AM EDT 7:48 PM EDT
Astronomical Twilight 6:14 AM EDT 8:15 PM EDT
Moon 4:54 PM EDT (10/19) 4:31 AM EDT (10/19)
Length of Visible Light 12h 12m
Length of Day
11h 25m
Waxing Gibbous, 89% of the Moon is Illuminated
Oct 19
Waxing Gibbous
Oct 22
Full
Oct 30
Last Quarter
Nov 6
New
Nov 13
First Quarter

Hourly Weather History & Observations

Time (EDT) Temp. Heat Index Dew Point Humidity Pressure Visibility Wind Dir Wind Speed Gust Speed Precip Events Conditions
12:53 AM 66.0 °F - 57.9 °F 75% 29.96 in 10.0 mi Calm Calm - N/A   Clear
1:53 AM 64.9 °F - 57.9 °F 78% 29.96 in 10.0 mi Calm Calm - N/A   Clear
2:53 AM 64.0 °F - 57.0 °F 78% 29.95 in 10.0 mi Calm Calm - N/A   Clear
3:53 AM 64.9 °F - 57.9 °F 78% 29.94 in 10.0 mi Calm Calm - N/A   Mostly Cloudy
4:53 AM 66.0 °F - 59.0 °F 78% 29.94 in 10.0 mi Calm Calm - N/A   Partly Cloudy
5:53 AM 66.0 °F - 59.0 °F 78% 29.95 in 10.0 mi East 3.5 mph - N/A   Scattered Clouds
6:53 AM 66.9 °F - 60.1 °F 79% 29.96 in 10.0 mi East 3.5 mph - N/A   Mostly Cloudy
7:53 AM 66.9 °F - 62.1 °F 84% 29.98 in 10.0 mi Calm Calm - N/A   Overcast
8:53 AM 68.0 °F - 63.0 °F 84% 30.00 in 10.0 mi ESE 3.5 mph - 0.00 in Rain Light Rain
9:53 AM 71.1 °F - 64.9 °F 81% 30.01 in 10.0 mi Calm Calm - 0.00 in   Overcast
10:53 AM 77.0 °F - 64.0 °F 64% 30.01 in 10.0 mi SSE 6.9 mph - N/A   Mostly Cloudy
11:53 AM 79.0 °F - 63.0 °F 58% 30.00 in 10.0 mi SSE 5.8 mph - N/A   Scattered Clouds
12:53 PM 80.1 °F 81.9 °F 64.9 °F 60% 29.98 in 10.0 mi SW 6.9 mph - N/A   Clear
1:53 PM 81.0 °F 82.5 °F 64.0 °F 56% 29.95 in 10.0 mi SSW 8.1 mph - N/A   Scattered Clouds
3:53 PM 80.1 °F 81.9 °F 64.9 °F 60% 29.91 in 10.0 mi SW 8.1 mph - N/A   Clear
4:53 PM 80.1 °F 82.1 °F 66.0 °F 62% 29.91 in 10.0 mi West 8.1 mph - N/A   Clear
5:53 PM 79.0 °F - 66.0 °F 64% 29.90 in 10.0 mi West 8.1 mph - N/A   Clear
6:53 PM 77.0 °F - 66.9 °F 71% 29.91 in 10.0 mi West 5.8 mph - N/A   Clear
7:53 PM 73.9 °F - 64.9 °F 73% 29.92 in 10.0 mi NNW 3.5 mph - N/A   Clear
8:53 PM 73.9 °F - 66.0 °F 76% 29.94 in 10.0 mi NNW 3.5 mph - N/A   Overcast
9:53 PM 75.0 °F - 66.9 °F 76% 29.95 in 10.0 mi Calm Calm - N/A   Overcast
10:53 PM 75.0 °F - 68.0 °F 79% 29.96 in 10.0 mi NNE 3.5 mph - N/A   Overcast
11:53 PM 73.0 °F - 66.9 °F 81% 29.96 in 10.0 mi NE 4.6 mph - N/A   Overcast